Starlink 31203

operational
NORAD ID: 58869 Int'l Des: 2024-019 Owner: SPXS Country: US Constellation: starlink
LEOCIRCULAR

关于 Starlink 31203

正在加载描述...

实时位置

正在加载3D地球...

即将过境

高度历史

Altitude vs Time

uPlot chart will show altitude changes over time

两行轨道根数

1 58869U 24019S 25353.98065340 .00006889 00000-0 25965-3 0 9996
2 58869 43.0006 335.4484 0000593 267.0943 92.9841 15.27574481106936
Epoch: Dec 19, 2025 • Age: 21 hours

当前状态

高度 482.5 km
速度 7.63 km/s
星下点 2.92°N, 107.14°E
发射日期 Jan 29, 2024
运行时间 1.8 years
类型 internet

技术详情

分类 Payload
质量 730.00 kg
干质量 700.00 kg
总质量 730.00 kg
长度 0.30 m
直径 4.10 m
跨度 29.00 m
形状 Box + pan
制造商 SPXS
平台类型 Starlink V2M
阶段状态 In Orbit
所有者/国家 SPXS/US

大型星座

Loading constellations...